Regional Weather Roundup
Issued by NWS Sterling, VA

Home | Current Version | Previous Version | Text Only | Print | Product List | Glossary On
Versions: 1 2 3 4 5 6 7 8 9 10 11 12 13 14 15 16 17 18 19 20 21 22 23 24 25 26 27 28 29 30 31 32 33 34 35 36 37 38 39 40 41 42 43 44 45 46 47 48 49 50
094
ASUS41 KLWX 211410
RWRLWX

REGIONAL WEATHER ROUNDUP
NATIONAL WEATHER SERVICE BALTIMORE MD/WASHINGTON DC
1000 AM EDT THU SEP 21 2017

Note: "FAIR" indicates few or no clouds below 12,000 feet
with no significant weather and/or obstructions to visibility.
 TC=TEMPERATURE CELSIUS

 * =Non NWS site. Station does not report precipitation (e.g. rain,
    snow, etc.), thunder, or fog.

DCZ001-MDZ009-015-VAZ040>042-051-053>054-211500-
WASHINGTON METRO

CITY           SKY/WX    TMP DP  RH WIND       PRES   REMARKS
WASHINGTON NAT MOSUNNY   78  65  63 N5        30.07S
DULLES         MOSUNNY   75  64  68 NW7       30.08S
ANDREWS AFB    SUNNY     77  64  63 NE8       30.05F
FT BELVOIR     MOSUNNY   77  66  69 N3        30.06S
QUANTICO       MOSUNNY   77  67  71 E7        30.07S
COLLEGE PARK*  SUNNY     75  64  68 CALM      30.06S
LEESBURG*      SUNNY     77  64  65 N6        30.10R
MANASSAS*      SUNNY     77  65  66 N7        30.08S
GAITHERSBURG*  SUNNY     76  65  68 VRB3      30.09S

$$

MDZ006>007-011-014-211500-
BALTIMORE METRO

CITY           SKY/WX    TMP DP  RH WIND       PRES   REMARKS
BWI AIRPORT    MOSUNNY   78  65  63 N3        30.06S
MD SCIENCE CTR   N/A     80  64  58 MISG      30.06S
MARTIN STATE   MOSUNNY   79  70  73 NW6       30.07R
ANNAPOLIS      SUNNY     78  68  71 NW5       30.05S
FORT MEADE*    SUNNY     73  64  73 CALM      30.09R

$$

MDZ012-015-019>023-211500-
MARYLAND EASTERN SHORE

CITY           SKY/WX    TMP DP  RH WIND       PRES   REMARKS
OCEAN CITY     SUNNY     79  68  69 N8        30.03S
SALISBURY      SUNNY     79  68  69 N7        30.03S
CAMBRIDGE*     SUNNY     75  68  78 NE7       30.05R
EASTON*        MOSUNNY   75  64  69 NE6       30.08S

$$

MDZ017>025-211500-
SOUTHERN MARYLAND

CITY           SKY/WX    TMP DP  RH WIND       PRES   REMARKS
PATUXENT RIVER MOSUNNY   77  70  79 VRB6      30.04S
ST INIGOES     SUNNY     80  70  71 N5        30.04R
LEONARDTOWN*   SUNNY     73  66  78 N5        30.06S

$$

MDZ003>005-211500-
NORTH CENTRAL MARYLAND

CITY           SKY/WX    TMP DP  RH WIND       PRES   REMARKS
FREDERICK*     SUNNY     72  66  83 CALM      30.12R
HAGERSTOWN APT MOSUNNY   68  61  78 CALM      30.10S
WESTMINSTER*   MOSUNNY   73  64  73 N6        30.09S

$$

MDZ501>502-211500-
WESTERN MARYLAND

CITY           SKY/WX    TMP DP  RH WIND       PRES   REMARKS
OAKLAND*       SUNNY     66  61  82 N5        30.18R
CUMBERLAND*    SUNNY     68  63  83 CALM      30.16S

$$

VAZ025>031-211500-
SHENANDOAH VALLEY

CITY           SKY/WX    TMP DP  RH WIND       PRES   REMARKS
WINCHESTER*    SUNNY     70  63  78 CALM      30.10F
FRONT ROYAL*   SUNNY     70  64  83 CALM      30.11S
LURAY*         SUNNY     70  64  83 CALM      30.12F
NEW MARKET*    SUNNY     72  63  72 CALM      30.12S
STAUNTON*      SUNNY     68  63  83 CALM      30.15S
WAYNESBORO*    SUNNY     70  66  88 CALM      30.14S

$$

WVZ021-048>050-054>055-211500-
EASTERN WEST VIRGINIA PANHANDLE

CITY           SKY/WX    TMP DP  RH WIND       PRES   REMARKS
MARTINSBURG    SUNNY     70  62  76 VRB3      30.10S
PETERSBURG*    SUNNY     72  65  80 CALM      30.13F

$$

VAZ036>039-050-211500-
CENTRAL FOOTHILLS

CITY           SKY/WX    TMP DP  RH WIND       PRES   REMARKS
CHARLOTTESVILL MOSUNNY   77  67  71 CALM      30.09R
CULPEPER*      SUNNY     76  65  70 N7        30.09S
ORANGE*        SUNNY     73  63  68 CALM      30.09S
GORDONSVILLE*  SUNNY     76  64  64 N5        30.08S
WARRENTON*     SUNNY     78  62  56 N5        30.08S

$$

VAZ055>057-211500-
NORTH AND CENTRAL PIEDMONT

CITY           SKY/WX    TMP DP  RH WIND       PRES   REMARKS
FREDERICKSBRG* SUNNY     76  65  68 N3        30.06S
STAFFORD*      SUNNY     77  65  67 N6        30.10F

$$

NCZ024-NYZ072-PAZ021-071-VAZ022-071-211500-
OTHER REGIONAL OBSERVATIONS

CITY           SKY/WX    TMP DP  RH WIND       PRES   REMARKS
NEW YORK CITY  CLOUDY    74  64  71 VRB6      30.04S
PHILADELPHIA   MOSUNNY   80  64  58 N8        30.04S
PITTSBURGH     SUNNY     72  66  81 CALM      30.14R
ROANOKE        MOSUNNY   73  66  78 N5        30.15R
RICHMOND       MOSUNNY   78  64  61 NE8       30.06R
RALEIGH        MOSUNNY   77  65  66 N7        30.07R

$$

ANZ530>537-211500-
MARINE OBSERVATIONS

STATION/POSITION TIME  TEMP    WIND        PRES
                       AIR SEA DIR/SP/G
                 (UTC) (F)     (DEG/KT/KT) (MB)
THOMAS PT LIGHT  1400   73 75  360/  7/  8   N/A
BALT KEY BRIDGE  1342   76     300/  4/  5 1017.7R
COVE POINT       1342   73     360/  8/ 11 1018.2R
LEWISETTA        1342   74 76  350/  5/  8 1017.3R
SOLOMONS ISLAND  1342   75 76  350/  5/  8 1017.1R
PINEY POINT      1342          290/  7/  8   N/A

$$





USA.gov is the U.S. government's official web portal to all federal, state and local government web resources and services.